TimeAKDT,TemperatureF,Dew PointF,Humidity,Sea Level PressureIn,VisibilityMPH,Wind Direction,Wind SpeedMPH,Gust SpeedMPH,PrecipitationIn,Events,Conditions,WindDirDegrees,DateUTC
12:19 AM,37.4,35.6,93,29.75,2.0,NNE,11.5,-,N/A,,Overcast,30,2013-08-08 08:19:00
12:32 AM,37.4,37.4,100,29.74,1.0,NNE,10.4,-,N/A,,Mist,20,2013-08-08 08:32:00
12:53 AM,37.0,36.0,96,29.74,0.8,NE,12.7,-,N/A,,Mist,50,2013-08-08 08:53:00
1:00 AM,37.4,35.6,93,29.74,1.5,NE,10.4,-,N/A,,Overcast,40,2013-08-08 09:00:00
1:24 AM,37.4,35.6,93,29.73,3.0,NE,13.8,-,N/A,,Overcast,40,2013-08-08 09:24:00
1:31 AM,37.4,35.6,93,29.73,1.8,NE,12.7,-,N/A,,Overcast,50,2013-08-08 09:31:00
1:38 AM,37.4,35.6,93,29.73,3.0,NE,11.5,-,N/A,,Overcast,40,2013-08-08 09:38:00
1:53 AM,37.9,36.0,93,29.73,6.0,NNE,11.5,-,N/A,,Overcast,30,2013-08-08 09:53:00
1:59 AM,37.4,37.4,100,29.72,1.8,NNE,11.5,-,N/A,,Overcast,30,2013-08-08 09:59:00
2:48 AM,37.4,37.4,100,29.72,2.5,NE,13.8,-,N/A,,Overcast,40,2013-08-08 10:48:00
2:53 AM,37.0,36.0,96,29.72,4.0,NE,15.0,-,N/A,,Overcast,40,2013-08-08 10:53:00
3:02 AM,37.4,35.6,93,29.71,1.8,NE,12.7,-,N/A,,Overcast,40,2013-08-08 11:02:00
3:11 AM,37.4,35.6,93,29.71,0.5,NE,12.7,-,N/A,Fog,Fog,50,2013-08-08 11:11:00
3:53 AM,37.0,36.0,96,29.70,0.5,NE,13.8,-,N/A,Fog,Fog,40,2013-08-08 11:53:00
4:00 AM,37.4,35.6,93,29.69,0.5,NE,15.0,-,N/A,Fog,Fog,40,2013-08-08 12:00:00
4:13 AM,37.4,35.6,93,29.69,0.5,NE,17.3,-,N/A,Fog,Fog,40,2013-08-08 12:13:00
4:44 AM,37.4,35.6,93,29.69,0.5,NE,15.0,-,N/A,Fog,Fog,40,2013-08-08 12:44:00
4:53 AM,37.0,36.0,96,29.69,0.5,NE,13.8,-,N/A,Fog,Fog,40,2013-08-08 12:53:00
5:20 AM,37.4,35.6,93,29.68,0.2,NE,15.0,-,N/A,Fog,Fog,50,2013-08-08 13:20:00
5:38 AM,37.4,37.4,100,29.68,0.2,NNE,11.5,-,N/A,Fog,Fog,30,2013-08-08 13:38:00
5:50 AM,37.4,35.6,93,29.68,0.2,NE,13.8,-,N/A,Fog,Fog,40,2013-08-08 13:50:00
5:53 AM,37.0,36.0,96,29.68,0.2,NE,15.0,-,N/A,Fog,Fog,50,2013-08-08 13:53:00
6:27 AM,37.4,35.6,93,29.68,0.2,ENE,11.5,-,N/A,Fog,Fog,60,2013-08-08 14:27:00
6:53 AM,37.0,36.0,96,29.67,0.2,NE,13.8,-,N/A,Fog,Fog,40,2013-08-08 14:53:00
7:53 AM,37.0,37.0,100,29.66,0.2,NE,13.8,-,N/A,Fog,Fog,40,2013-08-08 15:53:00
8:53 AM,37.9,37.0,97,29.66,0.2,NNE,12.7,-,N/A,Fog,Fog,30,2013-08-08 16:53:00
9:11 AM,37.4,37.4,100,29.65,0.5,NNE,13.8,-,N/A,Fog,Fog,30,2013-08-08 17:11:00
9:35 AM,37.4,37.4,100,29.65,0.2,NNE,15.0,-,N/A,Fog,Fog,30,2013-08-08 17:35:00
9:53 AM,39.0,37.9,96,29.65,0.2,NNE,12.7,-,N/A,Fog,Fog,30,2013-08-08 17:53:00
10:03 AM,39.2,37.4,93,29.65,0.2,NE,15.0,-,N/A,Fog,Fog,40,2013-08-08 18:03:00
10:17 AM,39.2,37.4,93,29.65,0.2,NE,15.0,-,N/A,Fog,Fog,40,2013-08-08 18:17:00
10:33 AM,39.2,37.4,93,29.65,0.5,NE,15.0,-,N/A,Fog,Fog,40,2013-08-08 18:33:00
10:41 AM,39.2,37.4,93,29.65,1.0,NE,16.1,-,N/A,,Mist,40,2013-08-08 18:41:00
10:53 AM,39.0,37.9,96,29.66,1.8,NE,15.0,-,N/A,,Overcast,40,2013-08-08 18:53:00
11:20 AM,39.2,37.4,93,29.65,2.5,NNE,17.3,-,N/A,,Overcast,30,2013-08-08 19:20:00
11:53 AM,39.0,37.9,96,29.66,1.0,NNE,15.0,-,N/A,,Overcast,30,2013-08-08 19:53:00
12:42 PM,39.2,37.4,93,29.66,2.0,NE,19.6,-,N/A,,Overcast,40,2013-08-08 20:42:00
12:53 PM,39.0,37.9,96,29.66,1.0,NE,19.6,-,N/A,,Overcast,40,2013-08-08 20:53:00
1:05 PM,39.2,37.4,93,29.66,0.5,NE,17.3,23.0,N/A,Fog,Fog,40,2013-08-08 21:05:00
1:51 PM,37.4,37.4,100,29.65,0.8,NNE,18.4,-,N/A,,Mist,30,2013-08-08 21:51:00
1:53 PM,37.9,37.0,97,29.65,0.8,NNE,19.6,-,N/A,,Mist,30,2013-08-08 21:53:00
2:18 PM,39.2,37.4,93,29.65,1.0,NNE,19.6,-,N/A,,Overcast,30,2013-08-08 22:18:00
2:35 PM,39.2,37.4,93,29.65,3.0,NNE,18.4,26.5,N/A,,Overcast,30,2013-08-08 22:35:00
2:53 PM,39.0,37.0,93,29.66,0.8,NNE,18.4,-,N/A,,Overcast,30,2013-08-08 22:53:00
3:30 PM,39.2,37.4,93,29.66,2.0,NNE,19.6,-,N/A,,Overcast,30,2013-08-08 23:30:00
3:53 PM,39.0,37.0,93,29.67,5.0,NNE,17.3,-,N/A,,Overcast,30,2013-08-08 23:53:00
4:01 PM,39.2,37.4,93,29.66,1.5,NNE,20.7,-,N/A,,Overcast,20,2013-08-09 00:01:00
4:22 PM,39.2,37.4,93,29.66,0.8,NNE,17.3,25.3,N/A,,Mist,20,2013-08-09 00:22:00
4:53 PM,37.9,37.0,97,29.66,0.5,NNE,21.9,-,N/A,Fog,Fog,30,2013-08-09 00:53:00
5:11 PM,39.2,37.4,93,29.66,0.8,NE,21.9,-,N/A,,Mist,40,2013-08-09 01:11:00
5:21 PM,39.2,37.4,93,29.66,1.2,NE,20.7,-,N/A,,Overcast,40,2013-08-09 01:21:00
5:38 PM,39.2,37.4,93,29.67,2.5,NE,17.3,-,N/A,,Overcast,40,2013-08-09 01:38:00
5:46 PM,39.2,37.4,93,29.66,6.0,NE,19.6,-,N/A,,Overcast,40,2013-08-09 01:46:00
5:53 PM,39.0,37.0,93,29.66,7.0,NE,23.0,27.6,N/A,,Overcast,40,2013-08-09 01:53:00
6:51 PM,39.2,37.4,93,29.66,1.8,NE,18.4,-,N/A,,Overcast,50,2013-08-09 02:51:00
6:52 PM,39.0,37.0,93,29.67,1.8,NE,17.3,-,N/A,,Overcast,50,2013-08-09 02:52:00
7:28 PM,37.4,37.4,100,29.68,0.5,NE,17.3,-,N/A,Fog,Fog,40,2013-08-09 03:28:00
8:00 PM,37.4,37.4,100,29.68,0.8,NE,16.1,-,N/A,,Mist,50,2013-08-09 04:00:00
8:16 PM,37.4,35.6,93,29.68,1.5,NE,15.0,-,N/A,,Overcast,40,2013-08-09 04:16:00
8:29 PM,37.4,35.6,93,29.68,2.0,NE,16.1,-,N/A,,Overcast,50,2013-08-09 04:29:00
8:45 PM,37.4,35.6,93,29.68,0.8,NE,17.3,-,N/A,,Overcast,40,2013-08-09 04:45:00
8:53 PM,37.0,36.0,96,29.68,0.5,NNE,16.1,-,N/A,Fog,Fog,30,2013-08-09 04:53:00
9:33 PM,37.4,35.6,93,29.69,1.0,NNE,15.0,-,N/A,,Overcast,30,2013-08-09 05:33:00
9:53 PM,37.0,36.0,96,29.69,1.0,NE,15.0,-,N/A,,Overcast,40,2013-08-09 05:53:00
9:59 PM,37.4,35.6,93,29.69,2.0,NE,15.0,-,N/A,,Overcast,40,2013-08-09 05:59:00
10:15 PM,37.4,35.6,93,29.70,0.5,NE,15.0,-,N/A,Fog,Fog,40,2013-08-09 06:15:00
10:42 PM,37.4,35.6,93,29.71,0.8,NE,11.5,-,N/A,,Overcast,50,2013-08-09 06:42:00
10:51 PM,37.4,35.6,93,29.71,0.5,NE,15.0,-,N/A,Fog,Fog,40,2013-08-09 06:51:00
10:53 PM,37.0,36.0,96,29.71,0.5,NNE,12.7,-,N/A,Fog,Fog,30,2013-08-09 06:53:00
11:18 PM,37.4,35.6,93,29.71,0.8,NE,12.7,-,N/A,,Overcast,50,2013-08-09 07:18:00
11:35 PM,37.4,35.6,93,29.71,0.5,NNE,12.7,-,N/A,Fog,Fog,30,2013-08-09 07:35:00
11:53 PM,36.0,36.0,100,29.70,0.5,NNE,16.1,-,N/A,Fog,Fog,30,2013-08-09 07:53:00